[[{"header":{"parameterUnit":"m.s-1","parameterCategory":1,"la1":30.2991,"la2":30.254,"lo1":-89.0895,"lo2":-89.0444,"dy":0.0017,"dx":0.0017,"nx":28,"ny":28,"refTime":"2023-08-30T03:00:00:Z","depth":0,"parameterNumber":2,"parameterNumberName":"U-component_of_WINDS"},"data":[0,0,0,0,0,0,0,0,0,0,0,0,0,0,0,0,0,0,0,0,0,0,0,0,0,0,0,0,0,0,0,0,0,0,0,0,0,0,0,0,0,0,0,0,0,0,0,0,0,0,0,0,0,0,0,0,0,0,-0.4116,-0.4117,0,-0.421,-0.4211,-0.4212,-0.4208,-0.4206,-0.4205,-0.4204,-0.4298,-0.4302,-0.4306,0,0,0,0,0,0,0,0,0,0,0,0,0,-0.3933,-0.3936,-0.4116,-0.4117,-0.4119,-0.4209,-0.4211,-0.4212,-0.4208,-0.4206,-0.4205,-0.4203,-0.4297,-0.4301,-0.4306,0,0,0,0,0,0,0,0,0,0,0,0,0,-0.4018,-0.3937,-0.4116,-0.4127,-0.4129,-0.4209,-0.4211,-0.4212,-0.4208,-0.4206,-0.4204,-0.4202,-0.4296,-0.4301,-0.4307,-0.4381,0,0,-0.4324,-0.4326,0,0,0,0,0,0,0,0,-0.4013,-0.4025,-0.4125,-0.4127,-0.4129,-0.4195,-0.4181,-0.4269,-0.4209,-0.4178,-0.4204,-0.4201,-0.4265,-0.4273,-0.4295,-0.4385,-0.4389,-0.4324,-0.4328,-0.433,-0.4332,0,0,0,0,0,0,0,-0.4007,-0.402,-0.4153,-0.4126,-0.4129,-0.4127,-0.4137,-0.4197,-0.4232,-0.4181,-0.4181,-0.4192,-0.4266,-0.429,-0.4297,-0.4391,-0.4324,-0.4329,-0.4333,-0.4335,-0.4546,-0.4548,0,0,0,0,0,0,-0.3999,-0.4016,-0.415,-0.4156,-0.4065,-0.4132,-0.4143,-0.4176,-0.4231,-0.4238,-0.4193,-0.4191,-0.4281,-0.4291,-0.4301,-0.4392,-0.433,-0.4335,-0.4339,-0.4543,-0.4546,-0.4549,0,0,0,0,0,0,-0.3995,-0.4011,-0.4146,-0.4086,-0.4103,-0.4137,-0.4174,-0.4179,-0.4202,-0.4241,-0.4247,-0.4211,-0.428,-0.4293,-0.4361,-0.4395,-0.4338,-0.4343,-0.4541,-0.4544,-0.4547,-0.4574,0,0,0,0,0,0,-0.399,-0.401,-0.4039,-0.4087,-0.4106,-0.4206,-0.4176,-0.4182,-0.4212,-0.421,-0.4259,-0.4265,-0.4279,-0.4353,-0.4367,-0.4402,-0.4347,-0.4538,-0.4542,-0.4546,-0.457,-0.4577,-0.4584,0,0,0,0,0,-0.3983,-0.4042,-0.404,-0.4057,-0.4143,-0.4208,-0.4219,-0.4235,-0.4215,-0.4244,-0.4268,-0.4264,-0.4388,-0.436,-0.4375,-0.4412,-0.4536,-0.4541,-0.4546,-0.4567,-0.4576,-0.4584,0,0,0,0,0,0,-0.3998,-0.4049,-0.4047,-0.4124,-0.4161,-0.4207,-0.4245,-0.4244,-0.4288,-0.4284,-0.4301,-0.4312,-0.438,-0.4403,-0.437,-0.4487,-0.4459,-0.4468,-0.447,-0.4479,-0.4486,-0.448,-0.4352,0,0,0,0,0,-0.401,-0.4058,-0.41,-0.4163,-0.4182,-0.421,-0.4239,-0.4247,-0.4287,-0.4303,-0.4332,-0.4371,-0.4418,-0.445,-0.4496,-0.4572,-0.4583,-0.4605,-0.4612,-0.4618,-0.4626,-0.4667,-0.4678,-0.4565,-0.4565,-0.4565,0,0,-0.4036,-0.4069,-0.4099,-0.4167,-0.4198,-0.4247,-0.4224,-0.4277,-0.4314,-0.4311,-0.4378,-0.44,-0.4444,-0.4516,-0.455,-0.4537,-0.4659,-0.4624,-0.4628,-0.4633,-0.4674,-0.4684,-0.4694,-0.4568,-0.4568,-0.4567,0,0,-0.4108,-0.4138,-0.4195,-0.4225,-0.4271,-0.4289,-0.4302,-0.4348,-0.4363,-0.443,-0.4428,-0.4471,-0.4553,-0.4584,-0.4611,-0.4693,-0.469,-0.4707,-0.4745,-0.4785,-0.4794,-0.4802,-0.4832,-0.4842,-0.4714,-0.4714,-0.4714,0,-0.4135,-0.4209,-0.4224,-0.4277,-0.4307,-0.4306,-0.4363,-0.4392,-0.445,-0.4471,-0.4455,-0.4558,-0.4587,-0.4667,-0.4687,-0.4708,-0.4724,-0.4703,-0.4792,-0.48,-0.4808,-0.4836,-0.4847,-0.4716,-0.4716,-0.4716,-0.4716,0,-0.424,-0.4291,-0.4331,-0.4388,-0.4422,-0.4477,-0.4499,-0.4531,-0.4536,-0.4555,-0.4622,-0.4657,-0.471,-0.4729,-0.4734,-0.4809,-0.48,-0.4788,-0.4761,-0.482,-0.4847,-0.4858,-0.4719,-0.4718,-0.4718,-0.4717,0,0,-0.4326,-0.4389,-0.4404,-0.4429,-0.4479,-0.4519,-0.4573,-0.4625,-0.4652,-0.4692,-0.4738,-0.4806,-0.4795,-0.4825,-0.4833,-0.4869,-0.4932,-0.4852,-0.4853,-0.4867,-0.5017,-0.5027,-0.5039,-0.4929,-0.4931,-0.4933,-0.5013,0,-0.4405,-0.4502,-0.4516,-0.4601,-0.4649,-0.4648,-0.4695,-0.473,-0.4748,-0.4791,-0.4811,-0.486,-0.4841,-0.4859,-0.4894,-0.4917,-0.4962,-0.4911,-0.4972,-0.4974,-0.4963,-0.5053,-0.5065,-0.5139,-0.5024,-0.5026,-0.5027,0,-0.451,-0.4553,-0.4643,-0.4686,-0.4706,-0.4749,-0.4797,-0.4837,-0.4877,-0.4887,-0.492,-0.4924,-0.4979,-0.4948,-0.5024,-0.4989,-0.5014,-0.5029,-0.5032,-0.504,-0.5006,-0.5065,-0.5163,-0.5175,-0.5044,-0.5043,-0.5041,0,-0.4566,-0.4645,-0.471,-0.4731,-0.4782,-0.4812,-0.4834,-0.4872,-0.4902,-0.4943,-0.4962,-0.5009,-0.5036,-0.5071,-0.5087,-0.5063,-0.5162,-0.5133,-0.5173,-0.5173,-0.5196,-0.5194,-0.5301,-0.5209,-0.5209,-0.5209,-0.5209,0,-0.4653,-0.4709,-0.4735,-0.4775,-0.4837,-0.4851,-0.4912,-0.4933,-0.4966,-0.5009,-0.5009,-0.505,-0.5067,-0.511,-0.5122,-0.5184,-0.5195,-0.5205,-0.5208,-0.5206,-0.5205,-0.5225,-0.522,-0.5212,-0.5211,-0.5211,-0.521,0,-0.4726,-0.4746,-0.4817,-0.4859,-0.487,-0.4914,-0.495,-0.4988,-0.5005,-0.506,-0.5073,-0.51,-0.5151,-0.5169,-0.523,-0.5238,-0.531,-0.5307,-0.5297,-0.5298,-0.5337,-0.5334,-0.5461,-0.5479,-0.5375,-0.5375,-0.5376,0,-0.4782,-0.4825,-0.4871,-0.49,-0.4924,-0.4971,-0.5001,-0.5015,-0.5047,-0.5094,-0.5126,-0.5176,-0.5217,-0.5298,-0.5322,-0.5369,-0.5369,-0.541,-0.5376,-0.5372,-0.537,-0.5368,-0.5373,-0.5417,-0.5418,-0.5419,-0.542,0,-0.4878,-0.4886,-0.493,-0.4977,-0.5014,-0.5051,-0.5088,-0.5112,-0.5131,-0.5167,-0.5218,-0.525,-0.5312,-0.5362,-0.5409,-0.5431,-0.5429,-0.543,-0.5442,-0.5441,-0.5434,-0.5439,-0.5316,-0.5427,-0.5427,-0.5426,-0.5426,-0.5425,-0.4945,-0.4983,-0.5021,-0.507,-0.5099,-0.5133,-0.5171,-0.5193,-0.5236,-0.5288,-0.5293,-0.5349,-0.5385,-0.5449,-0.5473,-0.5516,-0.5504,-0.5522,-0.5526,-0.5531,-0.5534,-0.5425,-0.5524,-0.5524,-0.5524,-0.5524,-0.5523,0,-0.5043,-0.5067,-0.5111,-0.5163,-0.5201,-0.5194,-0.5234,-0.5267,-0.5316,-0.535,-0.539,-0.5449,-0.5496,-0.5524,-0.5572,-0.5601,-0.5601,-0.5613,-0.5612,-0.5617,-0.5541,-0.5526,-0.5612,-0.5612,-0.5612,-0.5612,-0.5612,-0.5612,-0.5098,-0.5162,-0.5173,-0.5251,-0.5274,-0.5329,-0.5353,-0.5384,-0.5411,-0.5477,-0.5517,-0.5534,-0.5566,-0.5615,-0.5658,-0.5665,-0.5683,-0.5696,-0.5702,-0.5631,-0.5622,-0.5613,-0.56,-0.57,-0.57,-0.5774,-0.5775,-0.5776]},{"header":{"parameterUnit":"m.s-1","parameterCategory":1,"la1":30.2991,"la2":30.254,"lo1":-89.0895,"lo2":-89.0444,"dy":0.0017,"dx":0.0017,"nx":28,"ny":28,"refTime":"2023-08-30T03:00:00:Z","depth":0,"parameterNumber":3,"parameterNumberName":"V-component_of_WINDS"},"data":[0,0,0,0,0,0,0,0,0,0,0,0,0,0,0,0,0,0,0,0,0,0,0,0,0,0,0,0,0,0,0,0,0,0,0,0,0,0,0,0,0,0,0,0,0,0,0,0,0,0,0,0,0,0,0,0,0,0,-5.8361,-5.8362,0,-5.8436,-5.8436,-5.8437,-5.8352,-5.8349,-5.8346,-5.8342,-5.8413,-5.8418,-5.8423,0,0,0,0,0,0,0,0,0,0,0,0,0,-5.8138,-5.8142,-5.8361,-5.8362,-5.8363,-5.8435,-5.8436,-5.8437,-5.8352,-5.8349,-5.8345,-5.8341,-5.8412,-5.8418,-5.8423,0,0,0,0,0,0,0,0,0,0,0,0,0,-5.8226,-5.8144,-5.8361,-5.8329,-5.8327,-5.8435,-5.8437,-5.8438,-5.8353,-5.8348,-5.8344,-5.8339,-5.841,-5.8417,-5.8424,-5.8565,0,0,-5.8447,-5.845,0,0,0,0,0,0,0,0,-5.8221,-5.8234,-5.8333,-5.8332,-5.8329,-5.838,-5.8384,-5.848,-5.8355,-5.8343,-5.8342,-5.8337,-5.8406,-5.8413,-5.8437,-5.8569,-5.8572,-5.8447,-5.8452,-5.8455,-5.8457,0,0,0,0,0,0,0,-5.8215,-5.823,-5.839,-5.8334,-5.8332,-5.8309,-5.8316,-5.8402,-5.84,-5.8344,-5.8338,-5.8348,-5.8404,-5.8431,-5.8438,-5.8573,-5.8447,-5.8453,-5.8458,-5.8461,-5.8822,-5.8826,0,0,0,0,0,0,-5.8213,-5.8226,-5.8388,-5.8392,-5.8262,-5.8317,-5.8325,-5.8368,-5.8399,-5.8399,-5.8352,-5.8344,-5.842,-5.843,-5.8441,-5.8607,-5.8455,-5.8462,-5.8466,-5.8816,-5.8823,-5.8828,0,0,0,0,0,0,-5.8209,-5.8228,-5.8385,-5.8307,-5.8326,-5.8326,-5.8375,-5.8372,-5.8399,-5.8406,-5.8404,-5.838,-5.8417,-5.843,-5.8535,-5.8608,-5.8465,-5.8471,-5.881,-5.8818,-5.8826,-5.8942,0,0,0,0,0,0,-5.8203,-5.8227,-5.8283,-5.8309,-5.833,-5.848,-5.838,-5.8377,-5.8413,-5.8402,-5.8432,-5.8432,-5.8414,-5.8525,-5.8542,-5.8616,-5.8477,-5.8804,-5.8814,-5.8823,-5.8931,-5.8953,-5.8971,0,0,0,0,0,-5.8195,-5.8311,-5.8286,-5.8306,-5.84,-5.8485,-5.8496,-5.8476,-5.8419,-5.8473,-5.8477,-5.8431,-5.8598,-5.8536,-5.8555,-5.8632,-5.8799,-5.8811,-5.8822,-5.8922,-5.8948,-5.897,0,0,0,0,0,0,-5.8291,-5.8314,-5.8286,-5.8415,-5.8449,-5.847,-5.8538,-5.8504,-5.8553,-5.8541,-5.8511,-5.8518,-5.863,-5.8641,-5.8572,-5.8769,-5.8689,-5.8705,-5.8758,-5.8783,-5.8802,-5.8797,-5.8483,0,0,0,0,0,-5.8328,-5.8397,-5.8412,-5.8524,-5.8543,-5.8538,-5.8574,-5.8556,-5.8588,-5.8602,-5.8613,-5.8645,-5.8704,-5.8744,-5.8799,-5.8932,-5.8937,-5.8994,-5.9014,-5.903,-5.9044,-5.9114,-5.914,-5.8867,-5.8867,-5.8866,0,0,-5.8403,-5.8424,-5.8469,-5.8544,-5.8568,-5.8639,-5.8551,-5.8629,-5.868,-5.8613,-5.8713,-5.8722,-5.8756,-5.8875,-5.8928,-5.8888,-5.9121,-5.9045,-5.9058,-5.9063,-5.9129,-5.9155,-5.9178,-5.8875,-5.8873,-5.8872,0,0,-5.8577,-5.86,-5.8696,-5.8722,-5.876,-5.8756,-5.8779,-5.8806,-5.881,-5.891,-5.8861,-5.892,-5.9024,-5.9049,-5.9076,-5.9259,-5.9217,-5.9277,-5.938,-5.9449,-5.947,-5.9489,-5.9554,-5.9577,-5.9291,-5.9292,-5.9292,0,-5.8665,-5.8772,-5.8749,-5.8832,-5.8865,-5.8809,-5.8905,-5.893,-5.8983,-5.9007,-5.8961,-5.909,-5.9108,-5.9232,-5.9277,-5.9301,-5.9324,-5.9274,-5.9469,-5.9488,-5.9505,-5.9566,-5.9591,-5.9299,-5.9298,-5.9297,-5.9297,0,-5.8878,-5.8952,-5.9025,-5.908,-5.9121,-5.921,-5.9199,-5.9243,-5.9221,-5.9221,-5.9322,-5.9343,-5.9401,-5.9428,-5.9407,-5.955,-5.9523,-5.9474,-5.9392,-5.9539,-5.9596,-5.9619,-5.9309,-5.9306,-5.9304,-5.9302,0,0,-5.9115,-5.9156,-5.9183,-5.9207,-5.9245,-5.93,-5.9385,-5.9444,-5.9482,-5.952,-5.9589,-5.9678,-5.9633,-5.9663,-5.9643,-5.9704,-5.9846,-5.9647,-5.9647,-5.9682,-6.0003,-6.004,-6.0068,-5.9819,-5.9823,-5.9827,-6.0,0,-5.9288,-5.9438,-5.942,-5.9563,-5.963,-5.9577,-5.9651,-5.9681,-5.9683,-5.9738,-5.9739,-5.9803,-5.9739,-5.9756,-5.9814,-5.9817,-5.991,-5.9804,-5.9881,-5.9884,-5.9875,-6.0097,-6.0136,-6.0299,-6.0022,-6.0026,-6.0029,0,-5.9512,-5.956,-5.971,-5.9737,-5.9764,-5.9831,-5.9883,-5.9937,-5.9969,-5.9966,-6.0,-5.9969,-6.0052,-5.9969,-6.0081,-6.001,-6.004,-6.0046,-6.0052,-6.0058,-5.9965,-6.0109,-6.0351,-6.0375,-6.0064,-6.0061,-6.0058,0,-5.9669,-5.9771,-5.9874,-5.9896,-5.9929,-5.9977,-5.9993,-6.002,-6.0056,-6.0101,-6.0123,-6.0176,-6.0205,-6.0245,-6.0229,-6.017,-6.0344,-6.026,-6.0342,-6.0343,-6.0381,-6.0379,-6.0631,-6.0402,-6.0402,-6.0401,-6.0401,0,-5.9865,-5.9958,-5.9945,-6.0008,-6.011,-6.0087,-6.0189,-6.0197,-6.0222,-6.0284,-6.0241,-6.03,-6.0275,-6.0331,-6.0318,-6.0413,-6.0426,-6.0425,-6.042,-6.0429,-6.0429,-6.0448,-6.0436,-6.0408,-6.0406,-6.0405,-6.0404,0,-6.0058,-6.0053,-6.0161,-6.0184,-6.0192,-6.0267,-6.0285,-6.0343,-6.0342,-6.0421,-6.0438,-6.0435,-6.0499,-6.0487,-6.0557,-6.0548,-6.0667,-6.0648,-6.0657,-6.0652,-6.0735,-6.0728,-6.1008,-6.1043,-6.0792,-6.0794,-6.0796,0,-6.0183,-6.0254,-6.0286,-6.0325,-6.0345,-6.0409,-6.0446,-6.0426,-6.0465,-6.0507,-6.0559,-6.062,-6.0668,-6.0772,-6.0775,-6.0828,-6.081,-6.0905,-6.0818,-6.0824,-6.0811,-6.0807,-6.0813,-6.0922,-6.0925,-6.0927,-6.0929,0,-6.0406,-6.04,-6.0456,-6.0512,-6.0558,-6.06,-6.0637,-6.0671,-6.0653,-6.07,-6.0766,-6.0803,-6.0876,-6.0936,-6.0985,-6.0998,-6.0961,-6.0957,-6.0978,-6.0988,-6.099,-6.0989,-6.0704,-6.095,-6.0948,-6.0947,-6.0945,-6.0945,-6.0569,-6.0629,-6.0661,-6.0725,-6.0751,-6.0787,-6.0843,-6.0849,-6.0904,-6.0963,-6.0946,-6.1021,-6.1049,-6.1112,-6.1131,-6.1188,-6.1152,-6.1184,-6.1192,-6.12,-6.121,-6.0981,-6.1197,-6.1196,-6.1195,-6.1195,-6.1194,0,-6.0789,-6.0807,-6.0866,-6.0921,-6.097,-6.0932,-6.0971,-6.1015,-6.1082,-6.1112,-6.116,-6.1236,-6.1294,-6.1301,-6.1355,-6.1399,-6.1383,-6.1414,-6.141,-6.1414,-6.1239,-6.1215,-6.1426,-6.1426,-6.1426,-6.1426,-6.1426,-6.1426,-6.091,-6.101,-6.1008,-6.1119,-6.1135,-6.121,-6.1236,-6.1268,-6.1292,-6.1379,-6.1428,-6.1433,-6.1453,-6.1508,-6.1559,-6.156,-6.1581,-6.1619,-6.1613,-6.1449,-6.1426,-6.1404,-6.1381,-6.1624,-6.1624,-6.1783,-6.1784,-6.1785]}]]